Location: Davayat
(45.9471°N, 3.1105°E)
Time: 16:33:36
(UTC+00:00)

Okean O Rocket - Pass Details

Date: 01 December 2020
Orbit: 623 x 644 km, 98.2° (Epoch: 17 January)

Event Time Altitude Azimuth Distance (km) Brightness Sun altitude
Rises 17:56:13 0° 190° (S) 2,897 5.3 -18.8°
Reaches altitude 10° 17:58:35 10° 200° (SSW) 1,999 4.6 -19.2°
Maximum altitude 18:02:28 32° 264° (W) 1,096 3.5 -19.9°
Drops below altitude 10° 18:06:25 10° 327° (NNW) 2,025 4.5 -20.6°
Sets 18:08:50 0° 338° (NNW) 2,942 5.2 -21.0°
